Temperature
15 15 15 15 15 15 15 16 16 16 16 16 16 16 17 17 17 17 17 17 18 18 18 18 18 18 18 18 18 18 18 18 18 18 18 18 18 18 17 18 18 17 17
14 14 14 15 15 15 15 15 16 16 16 16 16 16 16 17 17 17 17 17 17 18 18 17 17 17 18 18 18 18 18 18 18 18 18 18 18 18 18 18 17 17 17
14 14 14 14 14 15 15 15 15 15 16 16 16 16 16 17 17 17 17 17 17 17 17 17 17 17 17 18 18 18 18 18 18 18 18 17 18 18 18 18 17 17 17
14 14 14 14 14 14 14 15 15 15 15 15 16 16 16 16 17 17 17 17 18 17 17 17 17 17 17 17 17 17 17 18 17 17 17 17 17 17 17 17 17 17 17
13 13 13 13 14 14 14 14 14 15 15 15 16 16 16 16 17 17 17 17 17 18 18 17 17 17 17 17 17 17 17 17 17 17 17 17 17 17 17 17 17 17 17
13 13 13 13 13 13 13 14 14 14 15 15 15 16 16 16 16 17 17 17 17 17 18 17 17 17 17 17 17 17 17 17 17 17 17 17 17 17 17 17 17 17 17
12 12 13 13 13 13 13 13 14 14 14 14 15 15 16 16 16 16 17 17 17 17 17 17 17 17 17 17 17 17 17 17 17 17 17 17 17 17 17 17 17 17 17
12 12 12 12 12 13 13 13 13 14 14 14 14 15 15 16 16 16 16 17 17 17 17 17 17 17 17 17 17 17 17 17 17 17 17 17 17 17 17 17 17 17 17
12 12 12 12 12 12 12 13 13 13 13 14 14 14 14 15 15 16 16 16 17 17 17 17 17 17 17 17 17 17 17 17 17 17 17 17 17 17 17 17 17 17 16
12 12 12 12 12 12 12 12 12 13 13 13 13 14 14 14 14 15 15 16 16 16 17 17 17 17 17 17 17 17 17 17 17 17 17 17 17 17 17 17 17 16 16
11 11 11 11 12 12 12 12 12 12 13 13 13 13 13 14 14 14 14 15 16 16 16 16 17 17 17 17 17 17 17 17 17 17 17 17 17 17 17 17 17 17 16
11 11 11 11 11 11 12 12 12 12 12 12 13 13 13 13 13 13 14 14 15 16 16 16 16 17 17 17 17 17 17 17 17 17 17 17 17 17 17 17 17 17 16
11 11 11 11 11 11 11 12 12 12 12 12 12 12 13 13 13 13 13 13 14 15 15 16 16 16 17 17 17 17 17 17 17 17 17 17 17 17 17 17 17 17 16
11 11 11 11 11 11 11 11 11 11 12 12 12 12 12 12 13 13 13 13 13 14 14 15 16 16 16 16 16 16 17 17 17 17 17 17 17 16 16 16 16 16 16
11 11 11 11 11 11 11 11 11 11 11 11 12 12 12 12 12 13 13 13 13 13 13 14 15 15 15 16 16 16 16 16 16 17 17 17 17 16 16 16 16 16 16
11 11 11 11 11 11 11 11 11 11 11 11 11 12 12 12 12 12 12 12 12 12 12 13 14 14 15 15 15 15 16 16 16 16 16 17 17 17 16 16 16 16 16
11 11 11 11 11 11 11 11 11 11 11 11 11 11 12 12 12 12 12 12 12 12 12 13 13 14 14 14 15 15 15 15 16 16 16 16 16 16 16 16 16 16 16
12 12 11 11 11 11 11 11 11 11 11 11 11 11 11 12 12 12 12 12 12 12 12 12 13 13 14 14 14 15 15 15 15 16 16 16 16 16 16 16 16 16 16
12 12 12 12 11 11 11 11 11 11 11 11 11 11 11 11 11 11 11 12 12 12 12 12 12 13 13 13 14 14 14 15 15 15 15 15 16 16 16 16 16 16 16
13 12 12 12 12 11 11 11 11 11 11 11 11 11 11 11 11 11 11 11 11 11 11 11 12 12 13 13 13 14 14 14 15 15 15 15 15 15 16 16 16 16 16
13 13 12 12 12 12 12 11 11 11 11 11 11 11 11 11 11 11 11 11 11 11 11 11 12 12 12 12 13 13 13 14 14 15 15 15 15 15 15 15 15 15 15
13 13 13 13 12 12 12 12 12 11 11 11 11 11 11 11 11 11 11 11 11 11 11 11 12 12 12 12 12 12 13 13 13 14 14 15 14 15 15 15 15 15 15
14 13 13 13 13 13 12 12 12 12 12 11 11 11 11 11 11 11 11 11 11 11 11 11 11 12 12 12 12 12 12 12 13 13 13 14 14 14 14 15 15 15 15
14 14 13 13 13 13 13 12 12 12 12 12 11 11 11 11 11 11 11 11 11 11 11 11 11 11 12 12 12 12 12 12 13 13 13 13 14 14 14 14 14 14 15
14 14 14 13 13 13 13 13 12 12 12 12 12 11 11 11 11 11 11 11 11 11 11 11 11 11 11 11 11 11 12 12 12 13 13 12 13 13 14 14 14 14 14
14 14 14 14 14 13 13 13 13 12 12 12 12 11 11 11 11 11 11 11 11 11 11 11 11 12 12 11 11 11 11 11 11 12 12 12 13 12 13 13 14 14 14
Wind_Speed
2 2 2 3 3 3 2 2 2 2 3 3 4 4 4 5 5 6 7 8 9 9 10 10 11 12 12 11 11 11 11 11 11 11 11 12 12 12 12 12 11 11 11
2 2 3 2 3 3 3 2 2 2 2 2 3 3 4 5 5 6 6 7 9 9 10 11 11 12 13 12 12 11 11 12 12 12 12 12 13 13 12 12 12 11 10
3 2 2 3 3 4 3 2 2 1 2 2 3 4 4 4 5 5 6 6 6 8 10 11 11 12 13 13 13 12 12 13 13 13 13 13 13 14 13 12 12 11 10
5 3 2 3 4 3 2 1 1 1 2 2 3 3 4 4 4 5 5 5 5 5 7 10 12 13 13 14 13 13 13 13 13 13 13 13 13 14 13 13 12 11 10
6 3 2 3 4 2 2 2 1 1 2 2 3 3 4 4 4 4 4 5 5 5 5 7 10 13 14 14 14 14 14 14 14 14 14 13 14 14 13 13 12 11 11
6 4 2 4 4 2 2 2 2 1 2 2 3 2 3 4 4 4 4 3 4 5 5 5 6 9 13 14 15 15 15 15 15 15 15 15 14 14 14 13 12 12 11
6 4 3 3 3 2 2 2 1 1 1 1 0 1 2 3 4 4 3 3 3 4 5 5 6 7 9 13 15 16 15 16 16 16 16 16 15 15 14 14 13 13 12
6 4 3 3 3 3 3 3 2 1 1 0 1 0 2 2 2 2 3 3 4 3 3 5 6 7 8 9 12 16 17 17 17 17 17 17 17 16 16 15 15 14 13
6 4 4 3 3 2 2 3 2 1 1 1 0 1 1 1 2 1 2 2 2 3 3 3 6 8 9 9 11 15 18 18 18 18 18 18 18 17 17 16 16 15 14
5 5 4 3 3 2 2 3 2 1 0 1 1 1 1 1 1 1 2 1 2 3 3 4 5 7 9 10 11 14 17 19 20 20 19 19 19 18 18 18 17 16 16
5 5 4 3 3 3 3 2 2 1 0 1 1 0 0 0 1 1 2 2 2 2 3 4 4 5 8 10 10 13 16 19 20 21 20 20 20 20 20 19 19 18 17
4 5 4 3 3 3 3 2 2 1 1 0 1 1 1 1 1 2 2 2 2 2 3 3 3 4 5 8 10 13 16 18 19 20 20 21 21 21 21 21 20 20 19
3 5 4 4 3 3 3 2 2 2 2 1 1 1 2 2 1 2 2 1 2 2 2 2 3 3 4 6 8 11 13 17 19 20 20 21 21 22 22 22 22 21 21
4 4 4 4 4 3 3 2 2 2 2 2 2 1 1 2 2 2 2 2 1 2 2 3 2 3 3 4 7 9 10 14 18 19 20 20 21 22 23 23 23 23 22
3 4 3 3 4 4 3 2 2 2 2 2 2 2 1 2 2 3 3 3 3 2 3 3 2 2 2 4 6 8 9 12 16 18 19 20 20 21 23 24 24 24 23
3 3 4 4 4 4 3 2 2 2 2 3 2 2 2 2 2 2 2 3 3 4 3 3 3 2 2 4 6 8 9 12 15 17 19 20 20 21 22 23 24 24 24
3 3 3 3 3 4 3 3 3 3 3 3 3 3 3 3 2 2 2 2 3 3 5 4 3 2 3 4 4 5 7 8 10 14 17 18 20 21 22 22 23 24 24
3 3 3 3 4 3 3 3 4 3 3 3 4 3 4 3 3 3 2 3 3 4 4 5 3 3 4 4 5 5 4 6 8 11 15 17 18 20 21 22 23 23 24
3 3 3 3 4 4 4 3 3 3 3 3 4 3 4 4 4 3 3 3 3 4 4 4 4 3 3 3 3 4 4 4 6 9 12 14 16 18 20 21 22 23 23
3 4 4 4 4 4 4 4 3 3 4 4 4 4 4 4 5 4 4 4 4 4 4 4 5 4 3 3 3 3 4 3 4 5 7 10 13 16 19 20 22 22 23
4 4 4 5 4 4 4 4 3 3 4 4 4 4 5 5 6 5 4 4 3 4 4 4 5 4 4 3 3 3 4 4 4 4 4 5 6 7 10 15 19 21 22
5 4 5 5 6 5 7 7 4 3 3 4 5 5 5 5 6 7 7 6 5 5 5 5 5 5 6 5 4 4 4 4 4 3 4 5 5 7 7 9 15 18 21
5 5 6 5 6 8 10 9 7 3 3 4 4 4 4 4 5 4 6 7 7 8 8 6 7 7 6 5 4 5 5 5 6 3 3 5 5 7 6 10 15 18 20
5 6 6 6 6 9 10 9 7 4 4 4 4 5 5 5 5 5 4 5 6 6 7 6 7 8 8 7 6 7 6 6 5 4 4 5 4 5 5 6 13 17 18
6 6 6 6 7 9 11 9 7 3 3 5 5 4 5 5 8 7 4 6 7 6 7 8 9 10 11 11 8 5 5 5 5 4 4 4 3 3 4 5 8 15 17
6 6 6 6 7 8 11 10 7 3 4 5 4 4 6 6 8 7 4 5 7 7 6 7 7 8 7 8 9 7 6 6 4 4 4 4 3 3 3 3 4 6 9
Wind_Direction
322 320 311 315 312 306 289 278 259 224 213 216 232 226 230 237 236 238 245 248 244 239 231 221 211 205 201 196 195 189 181 177 174 170 168 164 160 156 153 149 147 145 142
329 324 321 319 313 312 294 276 275 250 226 211 230 228 230 236 235 236 240 247 247 239 229 223 218 211 205 199 198 193 187 183 178 175 173 168 164 159 157 155 153 152 148
346 337 329 325 313 315 304 290 280 244 238 230 231 231 224 226 231 237 240 243 245 235 223 219 221 217 210 204 201 197 190 186 183 179 176 171 167 164 165 162 161 157 155
358 352 345 329 323 322 311 291 273 253 238 231 234 235 228 225 233 235 234 233 235 232 223 218 218 218 214 208 204 200 195 191 188 183 180 174 171 170 170 170 168 166 165
2 3 348 331 337 332 325 312 277 228 241 242 237 231 226 227 229 235 229 229 228 223 219 221 221 217 214 211 208 203 200 195 194 189 185 180 177 176 176 176 175 174 171
357 358 348 345 350 351 341 333 307 267 244 252 258 254 231 229 224 225 230 225 223 220 215 214 219 221 216 213 210 207 204 200 198 195 192 188 186 185 184 184 184 182 180
355 355 354 355 358 360 340 330 316 314 290 258 273 306 294 241 232 230 224 220 220 220 213 210 209 214 218 216 213 211 208 206 204 201 197 195 193 192 192 192 192 190 188
355 360 1 353 351 352 358 360 356 345 317 334 140 107 321 329 283 240 223 220 222 211 217 220 210 210 212 209 213 214 212 212 210 207 202 200 198 198 198 199 198 196 194
352 358 359 352 349 352 345 338 342 11 318 312 246 162 163 237 302 315 255 232 213 204 215 216 217 217 213 210 212 218 216 215 214 213 208 205 204 202 203 203 202 202 200
350 359 1 357 351 349 341 328 8 337 252 296 309 284 224 186 189 334 331 307 257 225 219 222 222 219 216 213 214 215 217 216 217 216 215 211 209 208 207 207 207 206 205
348 356 356 355 352 348 342 342 354 8 321 232 250 286 286 310 199 197 284 311 313 272 243 232 222 221 217 216 217 216 216 217 219 220 219 217 213 212 211 211 210 210 210
333 345 349 350 346 347 340 335 345 1 1 278 245 225 208 192 191 197 230 266 280 279 265 247 231 224 219 218 224 225 219 219 219 221 222 221 218 216 214 213 213 213 214
321 327 341 338 338 336 337 345 359 352 346 336 286 245 237 235 214 192 201 236 266 290 293 272 242 222 221 219 226 230 227 223 222 221 221 222 222 219 218 216 216 216 217
286 306 326 333 335 339 353 3 357 336 341 327 318 293 267 261 233 211 197 187 245 279 282 271 275 233 229 226 235 233 237 231 226 224 224 223 223 223 221 219 219 218 219
290 312 328 340 341 345 354 0 345 329 328 321 310 310 293 278 263 237 222 205 197 235 261 260 263 268 253 244 243 238 237 237 232 229 226 225 225 225 224 222 219 218 219
304 321 332 338 342 349 353 356 336 329 337 322 308 318 312 292 287 260 236 227 214 212 241 253 250 268 266 263 245 241 241 241 237 232 228 226 226 226 224 223 221 218 218
300 311 319 327 333 336 338 341 329 334 339 329 328 321 311 302 294 285 262 240 231 222 244 261 249 258 261 262 265 251 248 241 241 236 232 229 227 226 224 222 220 218 216
289 292 306 316 318 321 325 325 322 331 331 323 319 320 312 315 302 288 274 258 245 232 233 257 262 256 252 256 257 256 252 244 239 240 235 232 229 226 224 222 219 218 216
286 295 297 299 303 306 309 306 297 302 305 301 301 300 298 302 293 284 277 267 260 253 234 244 260 249 255 254 257 259 251 249 247 243 238 235 233 230 226 222 219 217 215
277 286 288 287 288 291 291 290 288 292 297 296 292 286 284 277 271 275 275 268 260 256 246 247 257 258 254 253 242 251 260 246 252 249 240 236 234 231 227 222 219 218 216
268 274 285 293 293 286 277 273 270 274 284 296 299 292 286 286 280 269 264 262 256 254 254 250 254 258 258 250 246 240 253 264 256 235 238 234 228 228 223 222 220 218 216
271 273 275 282 290 286 293 293 278 259 273 282 292 298 298 298 309 311 307 295 275 260 256 254 256 254 258 248 245 246 249 256 262 230 222 238 216 230 225 218 218 216 217
264 269 271 272 277 282 290 295 289 262 261 270 276 289 302 306 314 301 304 309 301 289 272 258 258 257 255 242 239 247 242 244 248 234 219 243 221 232 228 222 217 214 215
256 262 268 270 273 280 287 286 285 272 262 269 268 269 277 293 297 293 290 297 290 284 275 265 253 257 253 248 238 245 252 256 262 244 212 238 226 231 230 222 218 214 213
256 254 259 265 268 278 285 284 277 250 263 274 273 267 265 278 296 302 295 294 295 289 278 271 269 269 268 261 249 244 243 245 258 243 206 221 226 230 232 230 220 216 216
255 265 267 261 258 268 281 283 274 227 255 273 282 277 273 277 293 301 285 284 292 292 295 299 294 288 277 269 256 236 235 242 246 246 211 205 215 204 246 236 221 215 218
Height
1511 1511 1511 1511 1510 1510 1511 1511 1512 1513 1514 1515 1517 1519 1520 1522 1523 1524 1526 1527 1528 1529 1531 1532 1533 1534 1536 1538 1540 1541 1543 1545 1546 1548 1550 1552 1553 1555 1557 1558 1560 1561 1562
1509 1509 1509 1508 1508 1508 1508 1508 1509 1510 1511 1512 1514 1516 1517 1519 1520 1522 1523 1525 1526 1528 1529 1530 1531 1533 1535 1537 1538 1540 1542 1544 1546 1548 1550 1551 1553 1555 1557 1558 1560 1561 1563
1507 1507 1506 1506 1506 1506 1506 1506 1506 1507 1508 1509 1511 1512 1514 1516 1518 1519 1521 1523 1524 1526 1527 1529 1530 1531 1533 1535 1537 1539 1541 1543 1545 1547 1549 1551 1553 1554 1556 1558 1560 1561 1563
1506 1505 1504 1504 1503 1503 1503 1504 1504 1505 1506 1506 1508 1509 1511 1513 1515 1516 1518 1520 1522 1524 1525 1527 1528 1530 1531 1533 1536 1538 1540 1542 1544 1546 1548 1550 1552 1554 1556 1558 1559 1561 1562
1504 1503 1502 1502 1501 1501 1501 1501 1502 1502 1503 1504 1505 1506 1508 1509 1511 1513 1515 1517 1519 1521 1523 1525 1526 1528 1530 1531 1534 1536 1538 1540 1542 1545 1547 1549 1551 1553 1555 1557 1559 1560 1561
1504 1502 1501 1500 1500 1499 1499 1499 1499 1500 1500 1501 1502 1503 1505 1506 1508 1509 1511 1513 1516 1518 1520 1522 1524 1526 1527 1529 1532 1534 1536 1538 1541 1543 1545 1547 1550 1552 1554 1556 1557 1559 1560
1503 1502 1500 1499 1498 1498 1497 1497 1497 1497 1498 1499 1500 1500 1502 1503 1504 1506 1507 1510 1512 1515 1517 1519 1521 1523 1525 1527 1529 1531 1534 1536 1538 1541 1543 1546 1548 1550 1552 1554 1556 1557 1559
1502 1501 1500 1498 1497 1497 1496 1495 1495 1495 1496 1497 1498 1498 1499 1501 1501 1502 1504 1506 1509 1511 1513 1516 1518 1520 1523 1525 1527 1529 1531 1534 1536 1538 1541 1543 1546 1548 1550 1552 1554 1556 1557
1502 1501 1499 1498 1497 1496 1495 1494 1494 1494 1494 1495 1496 1497 1497 1498 1499 1500 1501 1503 1505 1508 1510 1512 1515 1517 1520 1522 1524 1526 1528 1531 1533 1536 1538 1541 1543 1545 1547 1549 1551 1553 1555
1502 1500 1499 1497 1496 1495 1494 1494 1493 1493 1493 1494 1494 1495 1497 1497 1498 1498 1499 1500 1502 1504 1507 1509 1511 1513 1516 1518 1521 1523 1525 1528 1530 1533 1535 1537 1540 1542 1545 1547 1549 1551 1553
1501 1500 1498 1497 1495 1494 1494 1493 1492 1492 1492 1492 1493 1494 1495 1496 1496 1497 1497 1498 1500 1501 1503 1505 1507 1509 1512 1514 1517 1519 1522 1524 1527 1529 1531 1534 1536 1539 1541 1543 1546 1548 1550
1501 1499 1497 1496 1495 1494 1493 1492 1492 1491 1491 1491 1491 1492 1493 1494 1494 1495 1496 1496 1497 1498 1500 1501 1503 1505 1507 1510 1512 1515 1518 1520 1523 1525 1527 1530 1533 1535 1538 1540 1542 1544 1546
1500 1498 1497 1496 1494 1493 1492 1491 1491 1490 1490 1490 1490 1490 1491 1492 1492 1493 1494 1494 1494 1495 1496 1498 1500 1501 1503 1505 1508 1510 1513 1516 1518 1521 1523 1526 1528 1531 1533 1536 1538 1540 1542
1499 1498 1496 1495 1494 1492 1491 1490 1490 1489 1489 1488 1488 1489 1489 1489 1490 1491 1492 1492 1492 1493 1493 1495 1496 1498 1499 1501 1503 1505 1508 1510 1513 1516 1519 1521 1524 1526 1529 1531 1534 1536 1538
1499 1497 1496 1494 1493 1491 1490 1489 1488 1488 1487 1487 1487 1487 1487 1487 1487 1488 1489 1490 1491 1490 1490 1491 1493 1494 1495 1497 1498 1500 1502 1505 1508 1510 1513 1516 1519 1521 1524 1526 1529 1531 1534
1498 1497 1495 1493 1492 1491 1489 1488 1487 1486 1486 1485 1485 1485 1485 1485 1485 1485 1486 1486 1487 1488 1488 1487 1489 1490 1491 1493 1494 1496 1497 1499 1502 1504 1507 1510 1512 1515 1518 1520 1523 1526 1528
1497 1496 1494 1493 1491 1490 1489 1488 1486 1485 1484 1484 1483 1483 1482 1482 1482 1482 1483 1483 1484 1484 1484 1484 1485 1486 1487 1488 1489 1491 1492 1494 1496 1498 1501 1503 1506 1508 1511 1514 1517 1520 1522
1496 1495 1493 1492 1490 1489 1488 1487 1485 1484 1483 1482 1481 1481 1480 1480 1480 1480 1480 1480 1480 1481 1481 1480 1481 1482 1483 1484 1485 1485 1487 1488 1490 1492 1494 1496 1499 1501 1504 1507 1510 1513 1516
1495 1494 1492 1491 1490 1488 1487 1486 1484 1483 1482 1481 1480 1479 1478 1478 1477 1477 1477 1477 1477 1477 1477 1477 1477 1478 1478 1479 1480 1481 1482 1483 1484 1486 1488 1490 1492 1494 1497 1500 1502 1506 1509
1494 1493 1492 1490 1489 1488 1486 1485 1483 1482 1480 1479 1478 1477 1476 1475 1475 1474 1474 1474 1474 1474 1473 1473 1473 1473 1474 1474 1475 1476 1476 1478 1479 1480 1482 1483 1485 1487 1490 1492 1495 1498 1501
1494 1492 1491 1490 1488 1487 1485 1484 1482 1481 1479 1478 1477 1475 1474 1473 1473 1472 1471 1471 1471 1470 1470 1469 1469 1469 1469 1470 1471 1471 1472 1472 1473 1475 1475 1477 1478 1480 1482 1485 1487 1490 1493
1493 1492 1490 1489 1487 1486 1484 1482 1481 1479 1478 1476 1475 1474 1473 1471 1470 1469 1469 1468 1468 1467 1466 1466 1465 1465 1465 1466 1467 1467 1467 1468 1468 1469 1469 1470 1472 1472 1474 1477 1479 1482 1485
1491 1490 1489 1487 1486 1484 1483 1481 1479 1478 1476 1475 1473 1472 1471 1469 1468 1467 1466 1465 1464 1463 1463 1463 1462 1461 1462 1462 1462 1462 1462 1463 1463 1464 1465 1464 1465 1466 1468 1470 1472 1474 1477
1489 1488 1487 1485 1484 1483 1481 1479 1478 1476 1475 1473 1472 1470 1468 1467 1466 1464 1463 1462 1461 1460 1459 1459 1458 1457 1458 1458 1458 1458 1458 1458 1458 1458 1459 1459 1459 1460 1462 1463 1465 1466 1468
1486 1485 1484 1483 1481 1480 1479 1477 1476 1474 1473 1471 1470 1468 1466 1465 1463 1462 1460 1459 1457 1457 1456 1455 1454 1453 1453 1453 1453 1453 1453 1453 1452 1452 1454 1454 1453 1454 1455 1456 1458 1459 1461
1483 1482 1480 1479 1478 1477 1476 1475 1473 1471 1470 1469 1467 1466 1464 1463 1461 1460 1458 1456 1454 1453 1452 1451 1450 1449 1449 1448 1448 1448 1448 1448 1447 1447 1448 1448 1448 1449 1449 1449 1451 1452 1454